Weather reports worldwide

Advertisment
Tarbes/Ossun, France (7621): temperature & dewpoint: 09.12.2018 07:00:00 - 15.12.2018 07:00:00 (CET)Tarbes/Ossun, France (7621): temperature 5cm: 09.12.2018 07:00:00 - 15.12.2018 07:00:00 (CET)Tarbes/Ossun, France (7621): temperature -20cm & temperature -100cm: 09.12.2018 07:00:00 - 15.12.2018 07:00:00 (CET)Tarbes/Ossun, France (7621): wind speed & gusts: 09.12.2018 07:00:00 - 15.12.2018 07:00:00 (CET)Tarbes/Ossun, France (7621): wind direction: 09.12.2018 07:00:00 - 15.12.2018 07:00:00 (CET)Tarbes/Ossun, France (7621): reduced air pressure: 09.12.2018 07:00:00 - 15.12.2018 07:00:00 (CET)Tarbes/Ossun, France (7621): visibility: 09.12.2018 07:00:00 - 15.12.2018 07:00:00 (CET)Tarbes/Ossun, France (7621): sunshine duration: 09.12.2018 07:00:00 - 15.12.2018 07:00:00 (CET)Tarbes/Ossun, France (7621): precipitation: 09.12.2018 07:00:00 - 15.12.2018 07:00:00 (CET)
Date & Time tt [°C] td [°C] tt 5cm [°C] tt -20cm [°C] tt -100cm [°C] ff [km/h] ff [kn] fx [km/h] fx [kn] dd ppp [hPa] vv [km] sd [min] rr [mm]
15.12.2018 07:00:00 - - - - - - - - - - - - - -
15.12.2018 06:00:00 4,5 3,9 2,5 9,4 11,7 11 6 14 8 S 1022,0 50 0 0,0
15.12.2018 05:00:00 3,6 3,0 2,7 9,4 11,7 8 4 17 9 S 1022,8 46 0 0,0
15.12.2018 04:00:00 3,6 3,2 2,5 9,5 11,7 11 6 19 10 S 1023,4 26 0 0,0
15.12.2018 03:00:00 3,1 2,7 2,5 9,5 11,7 9 5 12 7 S 1023,6 0,8 0 0,0
15.12.2018 02:00:00 5,1 4,1 3,6 9,5 11,7 5 3 8 5 S 1023,3 0,5 0 0,0
15.12.2018 01:00:00 7,4 6,8 7,3 9,5 11,7 7 4 14 8 SW 1023,6 10 0 0,2
15.12.2018 00:00:00 7,4 6,7 7,2 9,5 11,7 9 5 13 7 S 1024,0 18 0 0,0
14.12.2018 23:00:00 7,5 6,6 7,2 9,5 11,7 11 6 15 8 SSW 1023,9 32 0 0,0
14.12.2018 22:00:00 7,6 6,7 6,7 9,5 11,7 5 3 9 5 SSE 1023,9 29 0 0,0
14.12.2018 21:00:00 7,2 6,1 6,6 9,5 11,8 8 5 19 10 SW 1024,2 19 0 0,0
14.12.2018 20:00:00 8,4 7,0 7,6 9,5 11,7 11 6 23 13 WSW 1023,7 26 0 0,0
14.12.2018 19:00:00 8,8 6,6 7,7 9,5 11,8 15 8 23 13 W 1023,0 15 0 0,0
14.12.2018 18:00:00 8,8 6,1 7,7 9,4 11,7 12 6 18 10 SW 1022,2 27 0 0,0
14.12.2018 17:00:00 9,2 6,3 8,3 9,4 11,8 10 5 33 18 W 1022,5 44 0 0,0
14.12.2018 16:00:00 9,1 6,9 8,6 9,4 11,8 20 11 31 17 WSW 1022,0 42 0 0,0
14.12.2018 15:00:00 9,2 7,3 8,7 9,3 11,8 19 10 32 17 WSW 1021,1 38 0 0,4
14.12.2018 14:00:00 9,5 7,1 8,7 9,3 11,8 17 9 33 18 WNW 1020,1 35 0 0,0
14.12.2018 13:00:00 9,3 6,6 8,6 9,3 11,8 15 8 32 17 W 1020,0 20 0 0,0
14.12.2018 12:00:00 9,9 7,0 9,0 9,3 11,8 20 11 36 19 WSW 1019,6 54 17 0,0
14.12.2018 11:00:00 10,1 7,9 7,6 9,2 11,8 14 7 27 15 WSW 1019,2 17 27 0,0
14.12.2018 10:00:00 8,8 7,6 7,5 9,2 11,7 17 9 32 17 WSW 1018,5 36 0 0,0
14.12.2018 09:00:00 8,3 7,4 7,6 9,2 11,8 14 8 27 15 W 1017,5 35 0 0,0
14.12.2018 08:00:00 8,5 7,6 7,9 9,2 11,8 19 10 32 17 W 1016,2 51 0 0,4
14.12.2018 07:00:00 8,4 7,5 - - - 16 9 29 16 WSW 1015,3 16 - -
14.12.2018 06:00:00 8,4 7,6 7,9 9,3 11,8 16 9 31 17 WSW 1014,7 2,7 0 1,6
14.12.2018 05:00:00 8,4 7,6 7,9 9,2 11,8 13 7 26 14 W 1014,4 6 0 0,6
14.12.2018 04:00:00 8,4 7,3 7,7 9,3 11,9 15 8 31 17 W 1014,6 19 0 0,0
14.12.2018 03:00:00 8,4 7,3 7,7 9,2 11,8 17 9 29 16 W 1014,1 30 0 0,0
14.12.2018 02:00:00 8,2 7,1 7,7 9,2 11,9 20 11 37 20 W 1013,4 20 0 0,7
14.12.2018 01:00:00 8,4 7,6 7,7 9,3 11,8 23 13 40 21 W 1012,8 5 0 1,2
14.12.2018 00:00:00 8,3 7,2 7,7 9,3 11,9 20 11 39 21 WSW 1012,3 14 0 0,6
13.12.2018 23:00:00 8,2 7,1 7,6 9,3 11,9 16 9 33 18 WSW 1011,7 11 0 1,0
13.12.2018 22:00:00 8,2 7,1 7,5 9,3 11,9 21 12 50 27 WSW 1011,2 12 0 1,0
13.12.2018 21:00:00 8,1 6,9 7,0 9,3 11,9 28 15 52 28 W 1010,5 10 0 2,2
13.12.2018 20:00:00 7,7 6,3 7,1 9,3 11,9 30 16 46 25 WSW 1009,6 9 0 2,0
13.12.2018 19:00:00 7,6 6,5 7,1 9,4 11,9 30 16 49 26 WSW 1009,0 8 0 2,6
13.12.2018 18:00:00 7,8 6,6 7,2 9,3 11,9 29 16 54 29 WSW 1008,2 8 0 2,9
13.12.2018 17:00:00 7,9 6,2 7,2 9,3 12,0 31 17 56 30 WSW 1007,0 8 0 2,6
13.12.2018 16:00:00 8,8 7,1 8,2 9,3 11,9 33 18 52 28 WSW 1005,5 8 0 2,0
13.12.2018 15:00:00 8,7 8,2 9,3 9,3 11,9 8 5 17 9 WSW 1005,4 6 0 1,6
13.12.2018 14:00:00 8,5 7,9 9,5 9,3 11,9 3 2 9 5 NNW 1005,4 5 0 1,2
13.12.2018 13:00:00 8,5 7,7 9,0 9,3 11,9 4 2 8 4 N 1005,4 8 0 1,4
13.12.2018 12:00:00 8,4 7,5 8,0 9,3 11,9 3 2 19 10 ENE 1005,8 8 0 1,1
13.12.2018 11:00:00 7,5 6,9 7,3 9,3 12,0 7 4 15 8 SE 1006,3 9 0 2,8
13.12.2018 10:00:00 7,0 6,4 6,9 9,3 11,9 6 4 15 8 S 1006,6 8 0 0,8
13.12.2018 09:00:00 6,4 5,8 6,4 9,3 11,9 7 4 10 6 SSE 1007,1 17 0 0,8
13.12.2018 08:00:00 6,0 5,6 6,3 9,4 11,9 8 4 10 5 SW 1007,1 9 0 1,4
13.12.2018 07:00:00 5,7 5,0 6,1 9,4 12,0 0 0 9 5 N 1007,2 27 0 0,0
13.12.2018 06:00:00 5,5 5,1 5,6 9,5 12,0 6 3 12 7 SE 1007,6 23 0 0,0
13.12.2018 05:00:00 5,0 4,7 5,1 9,5 12,0 7 4 10 5 SSE 1008,8 18 0 0,0
13.12.2018 04:00:00 4,7 4,3 5,0 9,5 12,0 5 3 12 6 SSW 1009,4 13 0 0,0
13.12.2018 03:00:00 4,8 4,4 4,6 9,6 12,0 2 1 10 5 NNE 1010,1 15 0 0,0
13.12.2018 02:00:00 4,3 3,9 3,6 9,6 12,0 3 2 8 4 S 1011,2 16 0 0,0
13.12.2018 01:00:00 4,2 3,5 3,6 9,6 12,0 2 1 9 5 WNW 1012,1 4,1 0 0,0
13.12.2018 00:00:00 5,6 4,6 4,9 9,6 12,0 4 2 10 6 N 1012,7 16 0 0,0
12.12.2018 23:00:00 6,1 5,2 6,0 9,6 12,0 4 2 10 5 S 1014,0 21 0 0,0
12.12.2018 22:00:00 6,2 5,0 6,2 9,7 12,0 6 4 16 8 S 1014,8 21 0 0,0
12.12.2018 21:00:00 6,3 5,6 5,5 9,6 12,0 6 3 10 5 SSE 1016,4 20 0 0,0
12.12.2018 20:00:00 6,4 5,0 5,4 9,6 12,0 6 3 8 4 SSW 1016,8 20 0 0,0
12.12.2018 19:00:00 7,9 5,7 7,3 9,6 12,0 6 4 8 4 S 1017,2 30 0 0,0
12.12.2018 18:00:00 8,1 5,6 7,4 9,5 12,0 5 3 12 7 SW 1017,8 7 0 0,0
12.12.2018 17:00:00 9,2 5,9 8,4 9,5 12,0 10 5 16 9 SW 1018,1 36 0 0,0
12.12.2018 16:00:00 9,7 6,6 9,4 9,4 12,0 9 5 17 9 SW 1018,2 35 0 0,0
12.12.2018 15:00:00 9,9 7,0 9,9 9,3 12,0 12 6 21 11 SW 1018,7 34 0 0,0
12.12.2018 14:00:00 9,9 7,1 10,6 9,3 12,0 17 9 27 14 SW 1019,5 30 0 0,0
12.12.2018 13:00:00 10,4 8,0 10,2 9,2 12,0 16 9 27 15 WSW 1020,2 26 5 0,0
12.12.2018 12:00:00 9,9 8,5 9,5 9,2 12,0 15 8 30 16 W 1021,1 27 0 0,6
12.12.2018 11:00:00 9,6 8,5 9,4 9,2 12,0 13 7 34 18 W 1021,6 19 0 1,0
12.12.2018 10:00:00 9,8 9,2 9,3 9,1 12,0 14 7 - - W 1021,4 2,5 0 1,6
12.12.2018 09:00:00 9,7 8,9 8,5 9,1 12,1 21 12 37 20 W 1021,3 2,4 0 1,2
12.12.2018 08:00:00 9,3 8,2 7,2 9,1 12,0 12 7 26 14 SW 1020,9 3,0 0 0,2
12.12.2018 07:00:00 8,6 5,3 7,1 9,1 12,1 13 7 23 13 SSW 1021,1 41 0 0,0
12.12.2018 06:00:00 10,6 7,8 7,6 9,2 12,1 16 9 26 14 W 1020,9 10 0 0,0
12.12.2018 05:00:00 11,1 6,2 6,5 9,2 12,1 14 7 34 18 WSW 1021,3 35 0 0,0
12.12.2018 04:00:00 10,2 4,8 1,9 9,3 12,1 23 12 37 20 WSW 1021,7 19 0 0,0
12.12.2018 03:00:00 6,2 1,5 2,6 9,4 12,1 9 5 27 15 WSW 1022,7 37 0 0,0
12.12.2018 02:00:00 7,9 3,0 3,8 9,4 12,1 12 7 22 12 WSW 1022,2 35 0 0,0
12.12.2018 01:00:00 8,0 1,8 2,0 9,5 12,1 6 3 35 19 S 1021,8 40 0 0,0
12.12.2018 00:00:00 5,4 1,9 1,3 9,5 12,1 7 4 13 7 SSW 1022,1 28 0 0,0
11.12.2018 23:00:00 1,8 0,2 1,4 9,6 12,1 5 3 9 5 SSE 1022,3 12 0 0,0
11.12.2018 22:00:00 2,5 1,8 1,6 9,6 12,1 5 3 10 5 SE 1021,8 14 0 0,0
11.12.2018 21:00:00 2,7 2,0 1,6 9,6 12,1 4 2 9 5 S 1021,7 12 0 0,0
11.12.2018 20:00:00 2,5 1,6 2,0 9,6 12,1 7 4 9 5 S 1021,8 17 0 0,0
11.12.2018 19:00:00 3,5 2,0 2,5 9,6 12,1 9 5 10 5 SW 1021,8 24 0 0,0
11.12.2018 18:00:00 6,6 3,4 3,0 9,6 12,1 2 1 10 6 NNW 1021,1 27 0 0,0
11.12.2018 17:00:00 8,6 4,6 7,1 9,5 12,1 7 4 14 7 N 1020,4 29 40 0,0
11.12.2018 16:00:00 11,2 5,5 11,8 9,4 12,1 11 6 14 8 N 1020,1 56 47 0,0
11.12.2018 15:00:00 11,3 4,5 13,0 9,4 12,1 5 3 19 10 NE 1020,0 36 44 0,0
11.12.2018 14:00:00 11,1 4,5 12,5 9,4 12,1 6 4 16 9 ENE 1020,9 20 60 0,0
11.12.2018 13:00:00 9,6 4,2 10,4 9,4 12,1 9 5 19 10 NNE 1022,1 32 60 0,0
11.12.2018 12:00:00 8,0 4,8 6,9 9,5 12,1 7 4 16 8 NNE 1023,0 20 58 0,0
11.12.2018 11:00:00 4,6 4,0 3,2 9,6 12,1 6 4 11 6 NNE 1024,4 12 57 0,0
11.12.2018 10:00:00 2,1 1,8 0,0 9,7 12,1 2 1 9 5 N 1024,5 14 60 0,0
11.12.2018 09:00:00 -0,5 -0,9 -0,7 9,8 12,1 2 1 5 3 SSW 1025,0 18 14 0,0
11.12.2018 08:00:00 -0,8 -1,2 -0,6 9,9 12,1 3 2 10 5 SW 1025,0 26 0 0,0
11.12.2018 07:00:00 -0,5 -0,9 -0,3 10,0 12,1 3 2 7 4 S 1025,6 0,5 0 0,0
11.12.2018 06:00:00 0,1 -0,6 -0,2 10,1 12,1 0 0 7 4 N 1026,4 24 0 0,0
11.12.2018 05:00:00 0,5 -0,1 0,3 10,2 12,1 4 2 7 4 S 1027,4 11 0 0,0
11.12.2018 04:00:00 1,3 0,7 0,7 10,3 12,1 7 4 10 5 SSE 1027,9 19 0 0,0
11.12.2018 03:00:00 1,0 0,4 1,2 10,3 12,1 7 4 10 5 SSW 1028,4 9 0 0,0
11.12.2018 02:00:00 2,4 1,7 1,1 10,4 12,1 2 1 5 3 NW 1028,3 14 0 0,0
11.12.2018 01:00:00 3,9 2,7 1,5 10,4 12,1 3 1 5 3 N 1028,7 10 0 0,0
11.12.2018 00:00:00 5,6 3,9 3,1 10,4 12,1 3 1 9 5 W 1028,9 17 0 0,0
10.12.2018 23:00:00 6,8 4,3 6,4 10,4 12,1 8 4 15 8 NNE 1029,5 18 0 0,0
10.12.2018 22:00:00 8,4 4,8 6,8 10,4 12,1 7 4 11 6 NE 1029,7 19 0 0,0
10.12.2018 21:00:00 8,8 4,8 7,4 10,4 12,1 5 3 7 4 ENE 1030,3 20 0 0,0
10.12.2018 20:00:00 8,8 5,5 8,3 10,4 12,2 3 2 8 5 SSE 1030,6 31 0 0,0
10.12.2018 19:00:00 9,5 4,9 8,6 10,4 12,1 4 2 13 7 NE 1030,7 32 0 0,0
10.12.2018 18:00:00 9,7 5,5 8,9 10,3 12,1 8 4 15 8 NNE 1030,9 34 0 0,0
10.12.2018 17:00:00 10,3 5,9 10,1 10,3 12,1 7 4 13 7 N 1030,7 44 0 0,0
10.12.2018 16:00:00 10,9 5,0 11,2 10,2 12,1 9 5 16 8 N 1030,8 44 0 0,0
10.12.2018 15:00:00 11,0 5,3 12,3 10,2 12,2 5 3 16 9 NW 1031,2 42 0 0,0
10.12.2018 14:00:00 11,5 6,2 10,7 10,1 12,1 13 7 23 12 NNW 1031,7 20 37 0,0
10.12.2018 13:00:00 10,6 6,0 11,6 10,1 12,1 13 7 24 13 NW 1032,7 39 48 0,0
10.12.2018 12:00:00 10,9 5,8 10,1 10,2 12,1 9 5 18 10 W 1033,3 20 24 0,0
10.12.2018 11:00:00 10,9 6,2 7,3 10,2 12,1 9 5 20 11 WSW 1033,9 20 52 0,0
10.12.2018 10:00:00 7,4 4,2 5,5 10,3 12,1 13 7 17 9 S 1034,8 33 47 0,0
10.12.2018 09:00:00 5,5 3,7 3,2 10,4 12,1 11 6 16 9 S 1034,7 41 9 0,0
10.12.2018 08:00:00 4,3 2,0 2,8 10,4 12,1 14 8 18 10 S 1034,6 40 0 0,0
10.12.2018 07:00:00 4,7 2,4 3,5 10,5 12,1 11 6 14 7 S 1034,3 40 0 0,0
10.12.2018 06:00:00 5,7 3,0 5,2 10,5 12,2 10 6 14 8 S 1034,0 42 0 0,0
10.12.2018 05:00:00 6,5 4,5 4,5 10,6 12,2 13 7 16 8 S 1034,0 42 0 0,0
10.12.2018 04:00:00 5,4 2,6 4,8 10,6 12,1 10 5 19 11 SW 1034,7 36 0 0,0
10.12.2018 03:00:00 7,9 4,8 5,2 10,6 12,1 16 9 22 12 SW 1034,5 34 0 0,0
10.12.2018 02:00:00 8,9 4,9 6,7 10,6 12,2 14 8 24 13 SW 1034,6 34 0 0,0
10.12.2018 01:00:00 9,7 6,2 8,0 10,7 12,2 12 7 25 14 WSW 1034,6 16 0 0,0
10.12.2018 00:00:00 9,4 6,7 7,4 10,7 12,2 17 9 26 14 WSW 1034,5 15 0 0,0
09.12.2018 23:00:00 9,0 6,8 7,6 10,7 12,2 11 6 25 13 SW 1034,4 15 0 0,0
09.12.2018 22:00:00 9,8 6,9 7,9 10,7 12,1 13 7 24 13 WSW 1034,3 10 0 0,0
09.12.2018 21:00:00 9,9 6,4 8,2 10,7 12,2 18 10 27 15 SW 1034,1 14 0 0,0
09.12.2018 20:00:00 10,4 6,5 8,5 10,7 12,2 18 10 33 18 WSW 1033,7 14 0 0,0
09.12.2018 19:00:00 10,3 7,0 8,7 10,7 12,2 19 10 56 31 WSW 1032,7 15 0 0,0
09.12.2018 18:00:00 10,4 7,6 8,9 10,7 12,2 22 12 49 26 W 1031,8 13 0 0,2
09.12.2018 17:00:00 10,9 7,4 9,3 10,6 12,1 19 10 39 21 W 1030,8 17 0 0,2
09.12.2018 16:00:00 10,0 8,4 9,8 10,6 12,2 17 9 58 31 W 1030,7 10 1 0,2
09.12.2018 15:00:00 11,8 7,9 11,5 10,6 12,2 30 16 54 29 W 1030,1 18 0 0,0
09.12.2018 14:00:00 11,7 7,6 11,5 10,5 12,1 39 21 62 34 W 1029,7 20 14 0,0
09.12.2018 13:00:00 11,6 9,0 10,9 10,5 12,2 33 18 60 33 W 1029,8 19 0 0,0
09.12.2018 12:00:00 12,4 8,1 12,2 10,5 12,2 36 19 67 36 W 1030,0 20 1 0,0
09.12.2018 11:00:00 12,4 8,5 10,8 10,5 12,2 31 17 57 31 W 1029,9 19 12 0,0
09.12.2018 10:00:00 12,2 8,7 10,3 10,4 12,2 35 19 55 30 W 1029,5 20 49 0,0
09.12.2018 09:00:00 11,8 8,5 9,9 10,4 12,2 24 13 59 32 W 1029,3 35 15 0,0
09.12.2018 08:00:00 12,2 8,5 10,1 10,5 12,2 36 19 56 30 W 1028,4 54 0 0,0
09.12.2018 07:00:00 11,8 9,7 10,4 10,4 12,2 30 16 56 30 W 1028,5 37 0 0,0

tt = temperature
td = dewpoint
tt 5cm = temperature 5cm
tt -20cm = temperature -20cm
tt -100cm = temperature -100cm
ff = wind speed
fx = gusts
dd = wind direction
ppp = reduced air pressure
vv = visibility
sd = sunshine duration
rr = precipitation

Next stations